Location: Byszew
(52.1813°N, 19.2693°E)
Time: 00:27:34
(UTC+00:00)

Cosmos 2322 Rocket - Pass Details

Date: 27 June 2021
Orbit: 833 x 850 km, 71.0° (Epoch: 29 July)

Event Time Altitude Azimuth Distance (km) Brightness Sun altitude
Rises 22:34:45 0° 313° (NW) 3,425 6.1 -14.5°
Reaches altitude 10° 22:39:18 10° 346° (NNW) 2,486 6.0 -14.5°
Maximum altitude 22:41:07 11° 5° (N) 2,384 5.9 -14.5°
Drops below altitude 10° 22:42:55 10° 24° (NNE) 2,483 5.7 -14.5°
Sets 22:47:27 0° 57° (ENE) 3,413 5.8 -14.5°
